Погода в Белом

Россия / Республика Адыгея     45°02′53″N   39°39′03″E
темп.,
°C
ветер,
м/с
пор.,
м/с
влажн.,
%
обл.,
%
осадки,
мм/ч
давл.,
гПа
погр.,
м
13 июня, вс
вс1300:00+16ссз229016 0.0 101328
03:00+15з12913 0.1 101311
06:00+16ююз228715 0.0 101373
09:00+22ююз11648 0.0 1013591
12:00+25з225615 0.2 10121399
15:00+26зсз23460 0.9 10121614
18:00+25зсз13511 0.0 10111295
21:00+18з11800 0.0 101217
14 июня, пн
пн1400:00+16зсз22885 0.0 101219
03:00+15юз22915 0.0 101214
06:00+16юв118711 0.0 101264
09:00+23в346775 0.0 1011595
12:00+26всв565591 0.0 10111523
15:00+28всв555192 0.0 10102021
18:00+25св486887 0.0 1009359
21:00+20всв5128419 0.1 1008274
15 июня, вт
вт1500:00+19всв5138496 0.0 1007282
03:00+19всв41185100 0.0 1007248
06:00+19всв5119196 3.6 1008283
09:00+22в448038 7.3 1009625
12:00+26з346015 0.0 10091382
15:00+28зсз44500 0.0 10091513
18:00+26зсз23620 0.0 1009398
21:00+20сз22750 0.0 100924
16 июня, ср
ср1600:00+19ссв348272 0.0 100873
03:00+18ююз019496 0.1 100713
06:00+17зсз359898 5.1 1008283
09:00+17з589688 7.8 1010424
12:00+21зюз468148 1.8 1010825
15:00+23зсз57675 1.8 10101024
18:00+24сз34695 0.0 1011973
21:00+19ссз348356 0.0 101282
17 июня, чт
чт1700:00+17св339526 0.0 101151
03:00+16св339621 0.0 101168
06:00+17св369246 0.0 1011193
09:00+21ссв4474100 0.3 1011753
12:00+20с2481100 3.3 1012624
15:00+20сз2386100 5.3 1014373
18:00+21з237799 0.1 1014733
21:00+17зюз36958 0.1 1015117